Date String (YYYY-MM-DD hh:mm:ss) UTC,Instrument flags,Ambient pressure (hPa),Sample flow (lpm),Bypass flow (lpm),Sample temperature (°C),Ambient temperature (°C),ASC tube jacket temperature (°C),LED temperature (°C),Box temperature (°C),Sample RH (%),Span deviation,Mass concentration (μg/m³),Mass concentration (μg/m³),Mass concentration (μg/m³)
DateTimeUTC,F1_M11,P_M11,Q1_M11,Q2_M11,T1_M11,T2_M11,T3_M11,T4_M11,T5_M11,U1_M11,ZSPAN_M11,X2_M11,X0_M11,X1_M11
2022-10-23 14:00:00,,0803.6,4.99,0.00,29.6,28.1,00.0,38.4,31.5,08.9,0000.0,0002.46,0008.14,0001.46
2022-10-23 14:01:00,,0803.7,5.02,0.00,29.6,28.1,00.0,38.4,31.5,09.5,0000.0,0002.49,0008.14,0001.46
2022-10-23 14:02:00,,0803.7,4.98,0.00,29.6,28.1,00.0,38.5,31.5,09.4,0000.0,0002.52,0008.18,0001.44
2022-10-23 14:03:00,,0803.7,5.00,0.00,29.6,28.1,00.0,38.4,31.5,09.4,0000.0,0002.52,0007.82,0001.43
2022-10-23 14:04:00,,0803.7,5.02,0.00,29.6,28.1,00.0,38.4,31.5,09.2,0000.0,0002.48,0007.68,0001.43
2022-10-23 14:05:00,,0803.8,4.99,0.00,29.6,28.1,00.0,38.5,31.5,09.3,0000.0,0002.52,0007.44,0001.46
2022-10-23 14:06:00,,0803.8,5.00,0.00,29.6,27.9,00.0,38.5,31.4,09.3,0000.0,0002.52,0006.64,0001.48
2022-10-23 14:07:00,,0803.9,5.01,0.00,29.6,27.9,00.0,38.5,31.4,09.3,0000.0,0002.56,0006.39,0001.50
2022-10-23 14:08:00,,0803.9,5.01,0.00,29.6,27.9,00.0,38.4,31.4,09.2,0000.0,0002.61,0006.47,0001.53
2022-10-23 14:09:00,,0803.9,4.99,0.00,29.6,27.8,00.0,38.4,31.3,09.4,0000.0,0002.61,0006.54,0001.54
2022-10-23 14:10:00,,0803.9,5.00,0.00,29.5,27.8,00.0,38.4,31.3,09.5,0000.0,0002.63,0007.30,0001.57
2022-10-23 14:11:00,,0804.0,5.00,0.00,29.5,27.8,00.0,38.4,31.3,09.3,0000.0,0002.68,0007.53,0001.59
2022-10-23 14:12:00,,0804.1,4.99,0.00,29.5,27.9,00.0,38.4,31.3,09.1,0000.0,0002.73,0007.73,0001.62
2022-10-23 14:13:00,,0804.2,4.99,0.00,29.5,27.9,00.0,38.4,31.3,09.1,0000.0,0002.81,0008.50,0001.65
2022-10-23 14:14:00,,0804.2,5.00,0.00,29.5,27.8,00.0,38.4,31.3,09.5,0000.0,0002.82,0008.58,0001.70
2022-10-23 14:15:00,,0804.2,5.02,0.00,29.5,27.7,00.0,38.4,31.3,09.9,0000.0,0002.79,0008.63,0001.74
2022-10-23 14:16:00,,0804.2,4.99,0.00,29.5,27.7,00.0,38.4,31.3,10.0,0000.0,0002.80,0009.11,0001.73
2022-10-23 14:17:00,,0804.2,5.00,0.00,29.5,27.7,00.0,38.4,31.2,10.1,0000.0,0002.88,0008.76,0001.74
2022-10-23 14:18:00,,0804.1,5.02,0.00,29.4,27.7,00.0,38.4,31.2,10.1,0000.0,0002.90,0008.48,0001.73
2022-10-23 14:19:00,,0804.2,5.00,0.00,29.5,27.8,00.0,38.4,31.3,10.0,0000.0,0002.88,0009.07,0001.71
2022-10-23 14:20:00,,0804.2,5.00,0.00,29.5,27.8,00.0,38.4,31.3,10.1,0000.0,0002.84,0009.79,0001.69
2022-10-23 14:21:00,,0804.3,5.00,0.00,29.5,27.9,00.0,38.4,31.3,10.0,0000.0,0002.77,0009.82,0001.66
2022-10-23 14:22:00,,0804.4,5.01,0.00,29.5,27.9,00.0,38.4,31.3,09.8,0000.0,0002.73,0009.74,0001.62
2022-10-23 14:23:00,,0804.4,5.00,0.00,29.5,27.8,00.0,38.4,31.3,10.0,0000.0,0002.67,0009.50,0001.61
2022-10-23 14:24:00,,0804.4,5.00,0.00,29.5,27.8,00.0,38.4,31.3,10.0,0000.0,0002.59,0008.73,0001.61
2022-10-23 14:25:00,,0804.6,5.01,0.00,29.4,27.7,00.0,38.3,31.2,09.9,0000.0,0002.61,0008.74,0001.60
2022-10-23 14:26:00,,0804.6,4.99,0.00,29.4,27.7,00.0,38.3,31.2,10.0,0000.0,0002.72,0009.80,0001.59
2022-10-23 14:27:00,,0804.6,4.99,0.00,29.4,27.6,00.0,38.3,31.2,10.1,0000.0,0002.67,0009.34,0001.59
2022-10-23 14:28:00,,0804.5,5.01,0.00,29.4,27.6,00.0,38.3,31.2,10.1,0000.0,0002.60,0009.23,0001.58
2022-10-23 14:29:00,,0804.5,5.00,0.00,29.4,27.7,00.0,38.3,31.2,10.1,0000.0,0002.51,0009.10,0001.57
2022-10-23 14:30:00,,0804.6,4.99,0.00,29.4,27.6,00.0,38.3,31.2,10.2,0000.0,0002.52,0009.21,0001.57
2022-10-23 14:31:00,,0804.6,5.02,0.00,29.4,27.6,00.0,38.3,31.1,10.4,0000.0,0002.56,0008.60,0001.59
2022-10-23 14:32:00,,0804.5,5.00,0.00,29.4,27.6,00.0,38.3,31.2,10.9,0000.0,0002.61,0008.05,0001.61
2022-10-23 14:33:00,,0804.5,5.00,0.00,29.4,27.7,00.0,38.3,31.1,11.1,0000.0,0002.62,0008.33,0001.64
2022-10-23 14:34:00,,0804.6,5.00,0.00,29.4,27.7,00.0,38.3,31.2,11.0,0000.0,0002.66,0008.61,0001.66
2022-10-23 14:35:00,,0804.6,5.00,0.00,29.4,27.7,00.0,38.3,31.2,10.8,0000.0,0002.67,0008.64,0001.67
2022-10-23 14:36:00,,0804.5,5.01,0.00,29.4,27.8,00.0,38.3,31.2,10.8,0000.0,0002.70,0008.65,0001.68
2022-10-23 14:37:00,,0804.4,5.00,0.00,29.4,27.8,00.0,38.3,31.2,10.9,0000.0,0002.65,0007.96,0001.68
2022-10-23 14:38:00,,0804.4,5.00,0.00,29.4,27.8,00.0,38.3,31.2,10.9,0000.0,0002.61,0007.82,0001.68
2022-10-23 14:39:00,,0804.3,4.99,0.00,29.4,27.8,00.0,38.3,31.2,10.7,0000.0,0002.60,0008.35,0001.66
2022-10-23 14:40:00,,0804.3,5.00,0.00,29.4,27.9,00.0,38.3,31.2,10.5,0000.0,0002.56,0008.58,0001.65
2022-10-23 14:41:00,,0804.2,5.00,0.00,29.4,27.9,00.0,38.3,31.3,10.5,0000.0,0002.51,0008.33,0001.63
2022-10-23 14:42:00,,0804.2,5.02,0.00,29.4,27.9,00.0,38.3,31.3,10.3,0000.0,0002.44,0008.58,0001.60
2022-10-23 14:43:00,,0804.2,4.99,0.00,29.4,27.9,00.0,38.3,31.3,10.4,0000.0,0002.43,0009.01,0001.57
2022-10-23 14:44:00,,0804.2,4.99,0.00,29.5,28.0,00.0,38.3,31.3,10.3,0000.0,0002.41,0008.79,0001.53
2022-10-23 14:45:00,,0804.2,5.00,0.00,29.5,28.0,00.0,38.3,31.3,10.1,0000.0,0002.38,0008.43,0001.49
2022-10-23 14:46:00,,0804.2,5.00,0.00,29.5,28.0,00.0,38.3,31.4,09.9,0000.0,0002.34,0008.42,0001.46
2022-10-23 14:47:00,,0804.2,5.00,0.00,29.5,28.0,00.0,38.3,31.4,09.9,0000.0,0002.30,0008.44,0001.44
2022-10-23 14:48:00,,0804.2,5.03,0.00,29.5,28.1,00.0,38.3,31.4,10.2,0000.0,0002.26,0008.67,0001.42
2022-10-23 14:49:00,,0804.2,5.00,0.00,29.5,28.1,00.0,38.3,31.4,10.2,0000.0,0002.25,0008.48,0001.40
2022-10-23 14:50:00,,0804.2,4.99,0.00,29.5,28.1,00.0,38.3,31.4,10.3,0000.0,0002.23,0007.94,0001.38
2022-10-23 14:51:00,,0804.2,4.99,0.00,29.5,28.1,00.0,38.3,31.4,10.3,0000.0,0002.21,0007.82,0001.38
2022-10-23 14:52:00,,0804.2,5.01,0.00,29.6,28.2,00.0,38.4,31.4,10.0,0000.0,0002.23,0007.77,0001.39
2022-10-23 14:53:00,,0804.2,5.00,0.00,29.6,28.2,00.0,38.4,31.4,10.2,0000.0,0002.23,0006.58,0001.38
2022-10-23 14:54:00,,0804.2,4.99,0.00,29.6,28.2,00.0,38.4,31.5,10.4,0000.0,0002.18,0005.77,0001.37
2022-10-23 14:55:00,,0804.2,5.00,0.00,29.6,28.2,00.0,38.4,31.5,10.5,0000.0,0002.14,0005.61,0001.37
2022-10-23 14:56:00,,0804.2,5.01,0.00,29.6,28.2,00.0,38.4,31.4,10.6,0000.0,0002.12,0005.30,0001.36
2022-10-23 14:57:00,,0804.2,5.00,0.00,29.6,28.2,00.0,38.4,31.5,10.6,0000.0,0002.08,0005.13,0001.35
2022-10-23 14:58:00,,0804.2,5.00,0.00,29.6,28.2,00.0,38.4,31.5,10.7,0000.0,0002.00,0004.95,0001.31
2022-10-23 14:59:00,,0804.2,5.02,0.00,29.7,28.3,00.0,38.4,31.5,10.8,0000.0,0001.91,0004.03,0001.29
